Date String (YYYY-MM-DD hh:mm:ss) UTC,Instrument flags,Ambient pressure (hPa),Sample flow (lpm),Bypass flow (lpm),Sample temperature (°C),Ambient temperature (°C),ASC tube jacket temperature (°C),LED temperature (°C),Box temperature (°C),Sample RH (%),Span deviation,Mass concentration (μg/m³),Mass concentration (μg/m³),Mass concentration (μg/m³)
DateTimeUTC,F1_M11,P_M11,Q1_M11,Q2_M11,T1_M11,T2_M11,T3_M11,T4_M11,T5_M11,U1_M11,ZSPAN_M11,X0_M11,X2_M11,X1_M11
2022-06-13 04:00:00,,0817.4,5.00,0.00,29.3,28.2,00.0,38.0,31.2,16.6,0000.0,0013.51,0005.58,0004.59
2022-06-13 04:01:00,,0817.4,5.01,0.00,29.2,27.2,00.0,38.0,31.0,16.4,0000.0,0013.70,0005.55,0004.60
2022-06-13 04:02:00,,0817.4,4.99,0.00,29.1,26.7,00.0,37.9,30.8,16.3,0000.0,0013.49,0005.48,0004.61
2022-06-13 04:03:00,,0817.4,5.02,0.00,29.1,26.6,00.0,37.9,30.7,16.6,0000.0,0013.22,0005.47,0004.60
2022-06-13 04:04:00,,0817.4,4.99,0.00,29.0,26.7,00.0,37.9,30.6,17.4,0000.0,0013.61,0005.49,0004.59
2022-06-13 04:05:00,,0817.4,5.01,0.00,28.9,26.8,00.0,37.9,30.7,18.0,0000.0,0013.56,0005.50,0004.58
2022-06-13 04:06:00,,0817.3,5.00,0.00,28.9,27.0,00.0,37.8,30.7,18.4,0000.0,0013.14,0005.48,0004.58
2022-06-13 04:07:00,,0817.4,4.99,0.00,28.9,27.1,00.0,37.8,30.7,18.4,0000.0,0013.34,0005.45,0004.56
2022-06-13 04:08:00,,0817.3,5.01,0.00,28.9,27.3,00.0,37.8,30.8,17.4,0000.0,0013.23,0005.46,0004.56
2022-06-13 04:09:00,,0817.3,5.00,0.00,28.9,27.5,00.0,37.8,30.8,16.8,0000.0,0012.51,0005.43,0004.56
2022-06-13 04:10:00,,0817.3,5.00,0.00,28.9,27.6,00.0,37.8,30.9,17.8,0000.0,0012.45,0005.43,0004.56
2022-06-13 04:11:00,,0817.3,5.00,0.00,28.9,27.7,00.0,37.8,30.9,17.9,0000.0,0012.89,0005.44,0004.56
2022-06-13 04:12:00,,0817.4,5.00,0.00,29.0,27.8,00.0,37.9,30.9,16.0,0000.0,0012.64,0005.48,0004.57
2022-06-13 04:13:00,,0817.3,5.02,0.00,29.0,28.0,00.0,37.9,31.0,16.6,0000.0,0013.64,0005.52,0004.57
2022-06-13 04:14:00,,0817.3,5.00,0.00,29.0,28.0,00.0,37.9,31.0,15.8,0000.0,0013.15,0005.48,0004.57
2022-06-13 04:15:00,,0817.3,4.99,0.00,29.1,28.1,00.0,37.9,31.1,15.7,0000.0,0012.76,0005.40,0004.56
2022-06-13 04:16:00,,0817.3,4.99,0.00,29.1,28.2,00.0,37.9,31.1,14.9,0000.0,0013.32,0005.38,0004.55
2022-06-13 04:17:00,,0817.3,4.99,0.00,29.1,28.3,00.0,37.9,31.1,14.3,0000.0,0013.96,0005.43,0004.55
2022-06-13 04:18:00,,0817.4,5.01,0.00,29.2,28.4,00.0,38.0,31.2,14.3,0000.0,0013.59,0005.45,0004.56
2022-06-13 04:19:00,,0817.3,5.02,0.00,29.2,28.4,00.0,38.0,31.2,14.1,0000.0,0013.46,0005.44,0004.56
2022-06-13 04:20:00,,0817.3,5.00,0.00,29.3,28.5,00.0,38.0,31.3,13.5,0000.0,0013.34,0005.42,0004.54
2022-06-13 04:21:00,,0817.4,4.99,0.00,29.3,28.5,00.0,38.0,31.3,13.5,0000.0,0013.40,0005.41,0004.54
2022-06-13 04:22:00,,0817.4,4.99,0.00,29.3,28.5,00.0,38.0,31.3,13.3,0000.0,0013.92,0005.42,0004.53
2022-06-13 04:23:00,,0817.4,5.01,0.00,29.3,27.7,00.0,38.0,31.1,13.0,0001.2,0013.82,0005.42,0004.52
2022-06-13 04:24:00,,0817.4,5.00,0.00,29.2,27.3,00.0,37.9,31.0,12.8,0002.4,0013.35,0005.46,0004.52
2022-06-13 04:25:00,,0817.3,4.99,0.00,29.2,27.2,00.0,37.9,30.9,15.4,0000.0,0012.95,0005.48,0004.51
2022-06-13 04:26:00,,0817.3,5.00,0.00,29.1,27.2,00.0,37.9,30.9,13.8,0000.0,0012.95,0005.52,0004.50
2022-06-13 04:27:00,,0817.4,5.00,0.00,29.1,27.4,00.0,38.0,30.9,11.9,0000.0,0012.49,0005.60,0004.51
2022-06-13 04:28:00,,0817.4,4.99,0.00,29.1,27.5,00.0,38.0,30.9,12.1,0000.0,0011.95,0005.58,0004.52
2022-06-13 04:29:00,,0817.4,5.00,0.00,29.1,27.6,00.0,38.0,31.0,13.4,0000.0,0012.53,0005.61,0004.52
2022-06-13 04:30:00,,0817.4,5.00,0.00,29.1,27.8,00.0,38.0,31.0,12.5,0000.0,0012.85,0005.62,0004.52
2022-06-13 04:31:00,,0817.4,4.99,0.00,29.1,27.9,00.0,38.0,31.1,11.7,0000.0,0013.13,0005.68,0004.53
2022-06-13 04:32:00,,0817.4,5.00,0.00,29.2,28.0,00.0,38.0,31.1,13.5,0000.0,0014.25,0005.71,0004.55
2022-06-13 04:33:00,,0817.4,5.00,0.00,29.2,28.1,00.0,38.0,31.1,15.2,0000.0,0014.50,0005.68,0004.54
2022-06-13 04:34:00,,0817.4,5.00,0.00,29.2,28.2,00.0,38.0,31.2,15.2,0000.0,0014.22,0005.63,0004.53
2022-06-13 04:35:00,,0817.4,5.00,0.00,29.2,28.3,00.0,38.0,31.2,14.5,0000.0,0013.97,0005.56,0004.51
2022-06-13 04:36:00,,0817.4,4.99,0.00,29.3,28.4,00.0,38.1,31.3,14.4,0000.0,0014.30,0005.52,0004.51
2022-06-13 04:37:00,,0817.4,5.01,0.00,29.3,28.5,00.0,38.1,31.3,12.6,0000.0,0014.74,0005.53,0004.54
2022-06-13 04:38:00,,0817.3,5.01,0.00,29.3,28.4,00.0,38.1,31.3,11.9,0000.0,0015.32,0005.51,0004.55
2022-06-13 04:39:00,,0817.3,4.99,0.00,29.3,27.7,00.0,38.0,31.2,11.9,0000.0,0015.59,0005.54,0004.54
2022-06-13 04:40:00,,0817.3,4.99,0.00,29.3,27.4,00.0,38.0,31.0,12.0,0000.0,0015.06,0005.56,0004.55
2022-06-13 04:41:00,,0817.3,5.01,0.00,29.2,27.3,00.0,38.0,31.0,12.1,0000.0,0015.57,0005.56,0004.57
2022-06-13 04:42:00,,0817.2,5.00,0.00,29.1,27.4,00.0,38.0,30.9,12.2,0000.0,0015.30,0005.49,0004.58
2022-06-13 04:43:00,,0817.2,4.99,0.00,29.1,27.5,00.0,38.0,30.9,12.4,0000.0,0014.07,0005.43,0004.57
2022-06-13 04:44:00,,0817.2,5.00,0.00,29.1,27.6,00.0,38.0,31.0,12.6,0000.0,0013.57,0005.44,0004.59
2022-06-13 04:45:00,,0817.1,5.00,0.00,29.1,27.7,00.0,38.0,31.0,13.1,0000.0,0013.64,0005.48,0004.59
2022-06-13 04:46:00,,0817.2,5.00,0.00,29.1,27.8,00.0,38.0,31.0,13.4,0000.8,0013.73,0005.49,0004.60
2022-06-13 04:47:00,,0817.2,5.02,0.00,29.2,28.0,00.0,38.0,31.1,13.1,0000.5,0013.42,0005.53,0004.62
2022-06-13 04:48:00,,0817.2,4.99,0.00,29.2,28.1,00.0,38.0,31.1,13.1,0000.0,0013.08,0005.55,0004.64
2022-06-13 04:49:00,,0817.1,5.00,0.00,29.2,28.2,00.0,38.0,31.2,13.1,0000.0,0012.89,0005.54,0004.66
2022-06-13 04:50:00,,0817.2,5.00,0.00,29.2,28.2,00.0,38.0,31.2,13.5,0000.0,0013.21,0005.50,0004.67
2022-06-13 04:51:00,,0817.2,5.00,0.00,29.3,28.3,00.0,38.1,31.2,13.7,0000.0,0012.60,0005.48,0004.69
2022-06-13 04:52:00,,0817.1,4.98,0.00,29.3,28.4,00.0,38.1,31.3,14.0,0000.0,0011.94,0005.54,0004.71
2022-06-13 04:53:00,,0817.2,5.00,0.00,29.3,28.5,00.0,38.1,31.3,13.9,0000.0,0012.16,0005.60,0004.73
2022-06-13 04:54:00,,0817.2,5.01,0.00,29.4,28.5,00.0,38.1,31.3,14.3,0000.0,0012.97,0005.65,0004.74
2022-06-13 04:55:00,,0817.2,4.99,0.00,29.4,28.5,00.0,38.1,31.3,14.6,0000.0,0012.59,0005.70,0004.76
2022-06-13 04:56:00,,0817.2,5.00,0.00,29.4,27.9,00.0,38.1,31.2,14.7,0000.0,0012.99,0005.71,0004.78
2022-06-13 04:57:00,,0817.2,4.99,0.00,29.3,27.5,00.0,38.0,31.1,14.9,0000.0,0012.93,0005.71,0004.80
2022-06-13 04:58:00,,0817.2,5.00,0.00,29.2,27.4,00.0,38.0,31.0,15.1,0000.0,0012.89,0005.72,0004.80
2022-06-13 04:59:00,,0817.1,5.00,0.00,29.2,27.4,00.0,38.0,30.9,15.1,0000.0,0013.27,0005.74,0004.80
